Preview of NWS' New Version of Forecast
This preview is not operational and should not be used for support decisions.

Regional Weather Roundup (RWR)

Issued by National Weather Service (NWS)

                            
000
ASUS43 KDTX 171810
RWRMI 
MICHIGAN HOURLY REGIONAL WEATHER ROUNDUP
NATIONAL WEATHER SERVICE DETROIT/PONTIAC MI
100 PM EST SUN FEB 17 2019

NOTE: "FAIR" INDICATES FEW OR NO CLOUDS BELOW 12,000 FEET WITH NO
SIGNIFICANT WEATHER AND/OR OBSTRUCTION TO VISIBILITY.

MIZ047>049-052>055-059>063-066>070-074>076-081>083-171900-
SOUTHEAST LOWER MICHIGAN
  
CITY           SKY/WX    TMP DP  RH WIND       PRES   REMARKS
ADRIAN         CLOUDY    25  19  78 E15       29.92F WCI  13          
6HR MIN TEMP:  23; 6HR MAX TEMP:  25;                                

ALMA           CLOUDY    25  17  71 E13       29.99F WCI  13          
6HR MIN TEMP:  19; 6HR MAX TEMP:  25;                                

ANN ARBOR      CLOUDY    25  19  78 NE10      29.93F WCI  15          
BAD AXE        FLURRIES  23  18  80 SE6       30.02F WCI  16          
6HR MIN TEMP:  22; 6HR MAX TEMP:  24;                                

CARO           CLOUDY    24  18  78 E7        30.00F WCI  15          
DETROIT CITY   CLOUDY    25  18  74 E10       29.97F WCI  15          
6HR MIN TEMP:  22; 6HR MAX TEMP:  25;                                

DETROIT        CLOUDY    25  17  72 NE10      29.95F WCI  15          
6HR MIN TEMP:  23; 6HR MAX TEMP:  25;                                

FLINT          CLOUDY    24  15  68 E12       29.98F WCI  13          
6HR MIN TEMP:  21; 6HR MAX TEMP:  24;                                

GROSSE ILE     CLOUDY    27  19  72 E12G17    29.94F WCI  16          
6HR MIN TEMP:  24; 6HR MAX TEMP:  27;                                

HILLSDALE      CLOUDY    26  19  76 NE12G18   29.86F WCI  15          
6HR MIN TEMP:  23; 6HR MAX TEMP:  26;                                

HOWELL         CLOUDY    25  17  71 E9        29.93F WCI  15          
6HR MIN TEMP:  22; 6HR MAX TEMP:  25;                                


CITY           SKY/WX    TMP DP  RH WIND       PRES   REMARKS
JACKSON        CLOUDY    25  19  78 E15G21    29.90F WCI  13          
6HR MIN TEMP:  22; 6HR MAX TEMP:  26;                                

LAMBERTVILLE   CLOUDY    28  22  79 E12G18    29.91F WCI  17          
6HR MIN TEMP:  25; 6HR MAX TEMP:  29;                                

LANSING        HVY SNOW  22  20  92 E9        29.95F VSB 1/4 WCI  12  
6HR MIN TEMP:  21; 6HR MAX TEMP:  23; 6HR PCP:  0.01;                

LAPEER         CLOUDY    25  15  66 SE6       29.99S WCI  18          
6HR MIN TEMP:  22; 6HR MAX TEMP:  25;                                

MASON          CLOUDY    26  18  72 NE10      29.93F WCI  15          
6HR MIN TEMP:  23; 6HR MAX TEMP:  26;                                

MONROE         CLOUDY    26  22  84 E9G17     29.92F WCI  17          
6HR MIN TEMP:  24; 6HR MAX TEMP:  27;                                

MT. CLEMENS    CLOUDY    24  20  85 E14       29.97F WCI  12          
6HR MIN TEMP:  21; 6HR MAX TEMP:  24;                                

PONTIAC        CLOUDY    23  17  78 E9        29.93F WCI  13          
6HR MIN TEMP:  20; 6HR MAX TEMP:  23;                                

PORT HOPE        N/A     23  17  78 E10       30.04S WCI  12          
6HR MIN TEMP:  21; 6HR MAX TEMP:  24;                                

PORT HURON     CLOUDY    25  16  68 E7        30.01S WCI  17          
TRI CITIES     CLOUDY    24  17  74 E13       30.01F WCI  12          
6HR MIN TEMP:  18; 6HR MAX TEMP:  24;                                

MIDLAND        CLOUDY    25  18  74 NE14G20   30.01F WCI  13          
6HR MIN TEMP:  19; 6HR MAX TEMP:  25;                                

TROY           CLOUDY    25  16  69 E9        29.98F WCI  16          
SAGINAW HB     CLOUDY    27  18  69 E9        30.00F WCI  17          
$$
MIZ043>046-050>051-056>058-064>065-071>073-077>080-171900-
SOUTHWEST LOWER MICHIGAN
  
CITY           SKY/WX    TMP DP  RH WIND       PRES   REMARKS
BATTLE CREEK   CLOUDY    25  17  72 NE14      29.89F WCI  13          
6HR MIN TEMP:  22; 6HR MAX TEMP:  25;                                

BENTON HARBOR  LGT SNOW  27  21  78 E12G22    29.88F WCI  17          
6HR MIN TEMP:  25; 6HR MAX TEMP:  28; 6HR PCP: TRACE;                

BIG RAPIDS     CLOUDY    25  17  69 E15       29.95F WCI  13          
6HR MIN TEMP:  17; 6HR MAX TEMP:  25;                                

COLDWATER      CLOUDY    28  21  77 E13G18    29.86F WCI  17          
6HR MIN TEMP:  25; 6HR MAX TEMP:  28;                                

FREMONT        CLOUDY    27  18  69 E10G16    29.94F WCI  17          
6HR MIN TEMP:  19; 6HR MAX TEMP:  27;                                

HOLLAND        LGT SNOW  23  19  85 E9        29.92F VSB 1   WCI  13  
6HR MIN TEMP:  21; 6HR MAX TEMP:  23; 6HR PCP:  0.05;                

GRAND RAPIDS   HVY SNOW  22  18  85 E13       29.92F VSB 1/4 WCI  10  
6HR MIN TEMP:  19; 6HR MAX TEMP:  24; 6HR PCP:  0.02;                

IONIA          LGT SNOW  22  18  85 E12       29.94F VSB 3/4 WCI  11  
6HR MIN TEMP:  19; 6HR MAX TEMP:  24;                                

KALAMAZOO      CLOUDY    26  17  68 E10G20    29.89F WCI  16          
6HR MIN TEMP:  23; 6HR MAX TEMP:  26; 6HR PCP: TRACE;                

LUDINGTON      CLOUDY    27  15  61 E12       29.96F WCI  16          
6HR MIN TEMP:  18; 6HR MAX TEMP:  27;                                

MARSHALL       CLOUDY    26  19  74 E9G16     29.89F WCI  17          
6HR MIN TEMP:  23; 6HR MAX TEMP:  26;                                

MOUNT PLEASANT CLOUDY    26  15  64 NE14      29.98F WCI  14          
6HR MIN TEMP:  17; 6HR MAX TEMP:  26;                                

MUSKEGON       CLOUDY    26  17  68 E16G22    29.94F WCI  14          
6HR MIN TEMP:  20; 6HR MAX TEMP:  26; 6HR PCP:  0.02;                

SOUTH HAVEN    CLOUDY    27  21  76 E10       29.90F WCI  18          
$$
MIZ016>042-171900-
NORTHERN LOWER MICHIGAN
  
CITY           SKY/WX    TMP DP  RH WIND       PRES   REMARKS
ALPENA         CLOUDY    23  14  68 E13       30.08F WCI  11          
6HR MIN TEMP:   4; 6HR MAX TEMP:  23; 6HR PCP:  0.01;                

BEAVER ISLAND  CLOUDY    18  13  80 NE9G18    30.09F WCI   7          
6HR MIN TEMP:   5; 6HR MAX TEMP:  18;                                

BELLAIRE       CLOUDY    25  15  64 NE10      30.05F WCI  15          
6HR MIN TEMP:   1; 6HR MAX TEMP:  26;                                

CADILLAC       CLOUDY    22  14  71 E14       29.95F WCI   9          
CHARLEVOIX     FAIR      22  15  73 E6        30.10F WCI  15          
6HR MIN TEMP:   2; 6HR MAX TEMP:  22;                                

FRANKFORT      PTSUNNY   25  13  62 E6        30.02F WCI  18          
GAYLORD        CLOUDY    19  13  77 E6        30.00F WCI  11          
6HR MIN TEMP:  -5; 6HR MAX TEMP:  19; 6HR PCP: TRACE;                

GRAYLING       PTSUNNY   21  16  81 E15       29.99F WCI   7          
6HR MIN TEMP:  -3; 6HR MAX TEMP:  21;                                

HARBOR SPRINGS FLURRIES  22  15  75 E7        30.07F WCI  13          
HOUGHTON LAKE  CLOUDY    22  14  71 E16       29.99F WCI   8          
6HR MIN TEMP:   9; 6HR MAX TEMP:  22;                                

MANISTEE       FAIR      26  15  63 NE9       29.98F WCI  17          
OSCODA         CLOUDY    23  15  71 E12       30.06S WCI  12          
6HR MIN TEMP:  10; 6HR MAX TEMP:  24;                                

PELLSTON       LGT SNOW  22  16  78 E10       30.08F WCI  11          
6HR MIN TEMP:  -8; 6HR MAX TEMP:  22; 6HR PCP: TRACE;                

ROGERS CITY    CLOUDY    21  15  78 E12G17    30.11F WCI   9          
TRAVERSE CITY  CLOUDY    23  15  71 NE8       30.02F WCI  14          
6HR MIN TEMP:  14; 6HR MAX TEMP:  23;                                

$$
MIZ007>008-015-171900-
EASTERN UPPER MICHIGAN
  
CITY           SKY/WX    TMP DP  RH WIND       PRES   REMARKS
MACKINAC ISLAN CLOUDY    18  10  70 NE14G21   30.10F WCI   4          
6HR MIN TEMP:   9; 6HR MAX TEMP:  18;                                

NEWBERRY       LGT SNOW  17  11  75 MISG      30.10F                  
6HR MIN TEMP:   4; 6HR MAX TEMP:  17;                                

S. S. MARIE    CLOUDY    18   7  62 SE7       30.12F WCI   9          
6HR MIN TEMP:   4; 6HR MAX TEMP:  18; 6HR PCP: TRACE;                

MUNISING         N/A     22  12  65 E3        30.10F                  
6HR MIN TEMP:  16; 6HR MAX TEMP:  22;                                

$$
MIZ004>006-011>014-085-171900-
CENTRAL UPPER MICHIGAN
  
CITY           SKY/WX    TMP DP  RH WIND       PRES   REMARKS
MANISTIQUE     FAIR      20   6  55 N6        30.09F WCI  12          
6HR MIN TEMP:  10; 6HR MAX TEMP:  20;                                

ESCANABA       PTSUNNY   25  13  60 NE7       30.09F WCI  17          
6HR MIN TEMP:   7; 6HR MAX TEMP:  25;                                

MENOMINEE      FLURRIES  22  13  68 E15G22    30.08F WCI   9          
6HR MIN TEMP:  17; 6HR MAX TEMP:  22; 6HR PCP: TRACE;                

SAWYER-GWINN   LGT SNOW  19  14  79 NE10      30.05F WCI   8          
$$
MIZ001>003-009>011-084-171900-
WESTERN UPPER MICHIGAN
  
CITY           SKY/WX    TMP DP  RH WIND       PRES   REMARKS
IRON MOUNTAIN  CLOUDY    21  12  68 N12G20    30.04F WCI   9          
6HR MIN TEMP:   4; 6HR MAX TEMP:  21; 6HR PCP: TRACE;                

HOUGHTON       PTSUNNY   19   6  57 N9        30.11S WCI   8          
6HR MIN TEMP:   5; 6HR MAX TEMP:  20; 6HR PCP: TRACE;                

COPPER HARBOR    N/A     19  11  70 E13       30.16F WCI   6          
6HR MIN TEMP:   7; 6HR MAX TEMP:  19;                                

$$

ABBREVIATIONS USED IN REMARKS
   TC - TEMPERATURE IN CELSIUS
  WCI - WIND CHILL INDEX
   HX - HEAT INDEX
  VSB - VISIBILITY